Вернуться в каталог

KUIPER-00104

АктивенСвязьLEO
NORAD 65142·PAYLOAD·🇺🇸 United States

Запущен Aug 11, 2025 с Cape Canaveral Space Force Station

Loading…

Ближайшие Пролёты (ближайшие 24 часа)

TLE

СвежийSource: CelesTrak SupGP

Эпоха: Sep 14, 2026, 14:34 UTC

1 65142C 25171L   26257.60706019 -.00015631  00000+0 -20464-2 0  2577
2 65142  51.9022  42.6713 0000568 108.8330 330.8642 14.79941791    13

Отслеживайте KUIPER-00104 в реальном времени с AllMySat

Download on the App Store